Year,Month,Day,Hour,Minute,Value (Times are PST for temperature in C)
2015,06,20,10,46,17.80
2015,06,20,10,47,17.80
2015,06,20,10,48,17.80
2015,06,20,10,49,17.80
2015,06,20,10,50,17.80
2015,06,20,10,51,17.80
2015,06,20,10,52,17.90
2015,06,20,10,53,17.90
2015,06,20,10,54,17.90
2015,06,20,10,55,18.10
2015,06,20,10,56,18.20
2015,06,20,10,57,18.00
2015,06,20,10,58,17.90
2015,06,20,10,59,17.90
2015,06,20,11,00,17.90
2015,06,20,11,01,17.80
2015,06,20,11,02,17.70
2015,06,20,11,03,17.50
2015,06,20,11,04,17.30
2015,06,20,11,05,17.30
2015,06,20,11,06,17.30
2015,06,20,11,07,17.40
2015,06,20,11,08,17.50
2015,06,20,11,09,17.50
2015,06,20,11,10,17.70
2015,06,20,11,11,17.80
2015,06,20,11,12,17.80
2015,06,20,11,13,17.80
2015,06,20,11,14,17.70
2015,06,20,11,15,17.80
2015,06,20,11,16,17.80
2015,06,20,11,17,17.90
2015,06,20,11,18,18.00
2015,06,20,11,19,18.00
2015,06,20,11,20,17.90
2015,06,20,11,21,17.90
2015,06,20,11,22,17.90
2015,06,20,11,23,17.90
2015,06,20,11,24,17.90
2015,06,20,11,25,17.90
2015,06,20,11,26,17.90
2015,06,20,11,27,17.90
2015,06,20,11,28,17.90
2015,06,20,11,29,17.80
2015,06,20,11,30,17.80
2015,06,20,11,31,17.80
2015,06,20,11,32,17.80
2015,06,20,11,33,17.80
2015,06,20,11,34,17.80
2015,06,20,11,35,17.80
2015,06,20,11,36,17.80
2015,06,20,11,37,17.70
2015,06,20,11,38,17.90
2015,06,20,11,39,17.90
2015,06,20,11,40,17.90
2015,06,20,11,41,18.00
2015,06,20,11,42,18.10
2015,06,20,11,43,18.00
2015,06,20,11,44,17.80
2015,06,20,11,45,17.70
2015,06,20,11,46,17.80
2015,06,20,11,47,17.90
2015,06,20,11,48,17.90
2015,06,20,11,49,18.00
2015,06,20,11,50,18.10
2015,06,20,11,51,18.20
2015,06,20,11,52,18.30
2015,06,20,11,53,18.40
2015,06,20,11,54,18.30
2015,06,20,11,55,18.20
2015,06,20,11,56,18.10
2015,06,20,11,57,18.00
2015,06,20,11,58,17.90
2015,06,20,11,59,17.90
2015,06,20,12,00,17.80
2015,06,20,12,01,17.80
2015,06,20,12,02,17.80
2015,06,20,12,03,17.90
2015,06,20,12,04,18.00
2015,06,20,12,05,18.20
2015,06,20,12,06,18.20
2015,06,20,12,07,18.20
2015,06,20,12,08,18.30
2015,06,20,12,09,18.30
2015,06,20,12,10,18.40
2015,06,20,12,11,18.40
2015,06,20,12,12,18.50
2015,06,20,12,13,18.50
2015,06,20,12,14,18.60
2015,06,20,12,15,18.70
2015,06,20,12,16,18.60
2015,06,20,12,17,18.60
2015,06,20,12,18,18.60
2015,06,20,12,19,18.50
2015,06,20,12,20,18.60
2015,06,20,12,21,18.60
2015,06,20,12,22,18.60
2015,06,20,12,23,18.30
2015,06,20,12,24,18.10
2015,06,20,12,25,18.00
2015,06,20,12,26,17.80
2015,06,20,12,27,17.80
2015,06,20,12,28,17.90
2015,06,20,12,29,18.00
2015,06,20,12,30,18.10
2015,06,20,12,31,18.20
2015,06,20,12,32,18.30
2015,06,20,12,33,18.40
2015,06,20,12,34,18.60
2015,06,20,12,35,18.60
2015,06,20,12,36,18.60
2015,06,20,12,37,18.70
2015,06,20,12,38,18.70
2015,06,20,12,39,18.60
2015,06,20,12,40,18.50
2015,06,20,12,41,18.50
2015,06,20,12,42,18.50
2015,06,20,12,43,18.60
2015,06,20,12,44,18.60
2015,06,20,12,45,18.50
2015,06,20,12,46,18.50
2015,06,20,12,47,18.30
2015,06,20,12,48,18.10
2015,06,20,12,49,17.90
2015,06,20,12,50,17.90
2015,06,20,12,51,17.90
2015,06,20,12,52,17.90
2015,06,20,12,53,18.00
2015,06,20,12,54,18.20
2015,06,20,12,55,18.20
2015,06,20,12,56,18.20
2015,06,20,12,57,18.30
2015,06,20,12,58,18.30
2015,06,20,12,59,18.40
2015,06,20,13,00,18.50
2015,06,20,13,01,18.60
2015,06,20,13,02,18.70
2015,06,20,13,03,18.60
2015,06,20,13,04,18.60
2015,06,20,13,05,18.50
2015,06,20,13,06,18.50
2015,06,20,13,07,18.50
2015,06,20,13,08,18.60
2015,06,20,13,09,18.60
2015,06,20,13,10,18.70
2015,06,20,13,11,18.80
2015,06,20,13,12,18.80
2015,06,20,13,13,18.80
2015,06,20,13,14,18.90
2015,06,20,13,15,18.90
2015,06,20,13,16,18.80
2015,06,20,13,17,18.70
2015,06,20,13,18,18.70
2015,06,20,13,19,18.70
2015,06,20,13,20,18.80
2015,06,20,13,21,18.80
2015,06,20,13,22,18.70
2015,06,20,13,23,18.60
2015,06,20,13,24,18.60
2015,06,20,13,25,18.60
2015,06,20,13,26,18.60
2015,06,20,13,27,18.50
2015,06,20,13,28,18.50
2015,06,20,13,29,18.50
2015,06,20,13,30,18.50
2015,06,20,13,31,18.60
2015,06,20,13,32,18.50
2015,06,20,13,33,18.50
2015,06,20,13,34,18.50
2015,06,20,13,35,18.60
2015,06,20,13,36,18.60
2015,06,20,13,37,18.60
2015,06,20,13,38,18.60
2015,06,20,13,39,18.60
2015,06,20,13,40,18.60
2015,06,20,13,41,18.60
2015,06,20,13,42,18.50
2015,06,20,13,43,18.40
2015,06,20,13,44,18.30
2015,06,20,13,45,18.40
2015,06,20,13,46,18.50
2015,06,20,13,47,18.50
2015,06,20,13,48,18.50
2015,06,20,13,49,18.40
2015,06,20,13,50,18.40
2015,06,20,13,51,18.50
2015,06,20,13,52,18.50
2015,06,20,13,53,18.50
2015,06,20,13,54,18.40
2015,06,20,13,55,18.30
2015,06,20,13,56,18.30
2015,06,20,13,57,18.30
2015,06,20,13,58,18.30
2015,06,20,13,59,18.40
2015,06,20,14,00,18.30
2015,06,20,14,01,18.10
2015,06,20,14,02,17.90
2015,06,20,14,03,18.00
2015,06,20,14,04,18.10
2015,06,20,14,05,18.10
2015,06,20,14,06,18.20
2015,06,20,14,07,18.20
2015,06,20,14,08,18.20
2015,06,20,14,09,18.20
2015,06,20,14,10,18.20
2015,06,20,14,11,18.20
2015,06,20,14,12,18.30
2015,06,20,14,13,18.30
2015,06,20,14,14,18.30
2015,06,20,14,15,18.30
2015,06,20,14,16,18.50
2015,06,20,14,17,18.60
2015,06,20,14,18,18.70
2015,06,20,14,19,18.50
2015,06,20,14,20,18.50
2015,06,20,14,21,18.50
2015,06,20,14,22,18.40
2015,06,20,14,23,18.40
2015,06,20,14,24,18.50
2015,06,20,14,25,18.50
2015,06,20,14,26,18.50
2015,06,20,14,27,18.50
2015,06,20,14,28,18.60
2015,06,20,14,29,18.60
2015,06,20,14,30,18.70
2015,06,20,14,31,18.80
2015,06,20,14,32,18.80
2015,06,20,14,33,18.70
2015,06,20,14,34,18.60
2015,06,20,14,35,18.50
2015,06,20,14,36,18.40
2015,06,20,14,37,18.40
2015,06,20,14,38,18.40
2015,06,20,14,39,18.40
2015,06,20,14,40,18.40
2015,06,20,14,41,18.40
2015,06,20,14,42,18.50
2015,06,20,14,43,18.60
2015,06,20,14,44,18.70
2015,06,20,14,45,18.80
2015,06,20,14,46,18.80
2015,06,20,14,47,18.90
2015,06,20,14,48,18.90
2015,06,20,14,49,18.90
2015,06,20,14,50,18.90
2015,06,20,14,51,19.00
2015,06,20,14,52,19.10
2015,06,20,14,53,19.10
2015,06,20,14,54,19.10
2015,06,20,14,55,19.10
2015,06,20,14,56,19.10
2015,06,20,14,57,19.20
2015,06,20,14,58,19.20
2015,06,20,14,59,19.10
2015,06,20,15,00,19.10
2015,06,20,15,01,19.00
2015,06,20,15,02,18.90
2015,06,20,15,03,18.90
2015,06,20,15,04,18.90
2015,06,20,15,05,18.90
2015,06,20,15,06,18.90
2015,06,20,15,07,19.00
2015,06,20,15,08,19.10
2015,06,20,15,09,19.00
2015,06,20,15,10,18.90
2015,06,20,15,11,18.90
2015,06,20,15,12,18.80
2015,06,20,15,13,18.60
2015,06,20,15,14,18.40
2015,06,20,15,15,18.30
2015,06,20,15,16,18.40
2015,06,20,15,17,18.40
2015,06,20,15,18,18.50
2015,06,20,15,19,18.40
2015,06,20,15,20,18.40
2015,06,20,15,21,18.50
2015,06,20,15,22,18.60
2015,06,20,15,23,18.60
2015,06,20,15,24,18.50
2015,06,20,15,25,18.60
2015,06,20,15,26,18.70
2015,06,20,15,27,18.90
2015,06,20,15,28,18.90
2015,06,20,15,29,18.90
2015,06,20,15,30,18.90
2015,06,20,15,31,18.90
2015,06,20,15,32,18.80
2015,06,20,15,33,18.90
2015,06,20,15,34,18.90
2015,06,20,15,35,18.90
2015,06,20,15,36,19.00
2015,06,20,15,37,19.10
2015,06,20,15,38,19.10
2015,06,20,15,39,19.30
2015,06,20,15,40,19.50
2015,06,20,15,41,19.60
2015,06,20,15,42,19.70
2015,06,20,15,43,19.60
2015,06,20,15,44,19.50
2015,06,20,15,45,19.50
2015,06,20,15,46,19.40
2015,06,20,15,47,19.40
2015,06,20,15,48,19.40
2015,06,20,15,49,19.40
2015,06,20,15,50,19.50
2015,06,20,15,51,19.50
2015,06,20,15,52,19.50
2015,06,20,15,53,19.60
2015,06,20,15,54,19.60
2015,06,20,15,55,19.70
2015,06,20,15,56,19.90
2015,06,20,15,57,19.90
2015,06,20,15,58,19.90
2015,06,20,15,59,19.90
2015,06,20,16,00,19.90
2015,06,20,16,01,19.90
2015,06,20,16,02,19.90
2015,06,20,16,03,19.90
2015,06,20,16,04,19.90
2015,06,20,16,05,19.90
2015,06,20,16,06,19.80
2015,06,20,16,07,19.70
2015,06,20,16,08,19.60
2015,06,20,16,09,19.50
2015,06,20,16,10,19.40
2015,06,20,16,11,19.40
2015,06,20,16,12,19.50
2015,06,20,16,13,19.50
2015,06,20,16,14,19.50
2015,06,20,16,15,19.40
2015,06,20,16,16,19.30
2015,06,20,16,17,19.10
2015,06,20,16,18,19.10
2015,06,20,16,19,19.10
2015,06,20,16,20,19.10
2015,06,20,16,21,19.10
2015,06,20,16,22,19.10
2015,06,20,16,23,19.10
2015,06,20,16,24,18.90
2015,06,20,16,25,18.80
2015,06,20,16,26,18.60
2015,06,20,16,27,18.50
2015,06,20,16,28,18.30
2015,06,20,16,29,18.10
2015,06,20,16,30,17.80
2015,06,20,16,31,17.70
2015,06,20,16,32,17.60
2015,06,20,16,33,17.60
2015,06,20,16,34,17.50
2015,06,20,16,35,17.50
2015,06,20,16,36,17.60
2015,06,20,16,37,17.80
2015,06,20,16,38,18.00
2015,06,20,16,39,18.20
2015,06,20,16,40,18.40
2015,06,20,16,41,18.60
2015,06,20,16,42,18.60
2015,06,20,16,43,18.60
2015,06,20,16,44,18.60
2015,06,20,16,45,18.50
2015,06,20,16,46,18.40
2015,06,20,16,47,18.30
2015,06,20,16,48,18.30
2015,06,20,16,49,18.30
2015,06,20,16,50,18.20
2015,06,20,16,51,18.30
2015,06,20,16,52,18.30
2015,06,20,16,53,18.40
2015,06,20,16,54,18.40
2015,06,20,16,55,18.30
2015,06,20,16,56,18.20
2015,06,20,16,57,18.20
2015,06,20,16,58,18.10
2015,06,20,16,59,18.00
2015,06,20,17,00,18.00
2015,06,20,17,01,18.10
2015,06,20,17,02,18.20
2015,06,20,17,03,18.20
2015,06,20,17,04,18.30
2015,06,20,17,05,18.30
2015,06,20,17,06,18.30
2015,06,20,17,07,18.10
2015,06,20,17,08,17.80
2015,06,20,17,09,17.50
2015,06,20,17,10,17.30
2015,06,20,17,11,17.20
2015,06,20,17,12,17.10
2015,06,20,17,13,17.00
2015,06,20,17,14,16.90
2015,06,20,17,15,16.70
2015,06,20,17,16,16.60
2015,06,20,17,17,16.50
2015,06,20,17,18,16.40
2015,06,20,17,19,16.20
2015,06,20,17,20,16.00
2015,06,20,17,21,15.80
2015,06,20,17,22,15.60
2015,06,20,17,23,15.50
2015,06,20,17,24,15.40
2015,06,20,17,25,15.30
2015,06,20,17,26,15.30
2015,06,20,17,27,15.30
2015,06,20,17,28,15.40
2015,06,20,17,29,15.50
2015,06,20,17,30,15.60
2015,06,20,17,31,15.70
2015,06,20,17,32,15.80
2015,06,20,17,33,15.90
2015,06,20,17,34,16.10
2015,06,20,17,35,16.10
2015,06,20,17,36,16.20
2015,06,20,17,37,16.20
2015,06,20,17,38,16.20
2015,06,20,17,39,16.20
2015,06,20,17,40,16.20
2015,06,20,17,41,16.20
2015,06,20,17,42,16.20
2015,06,20,17,43,16.30
2015,06,20,17,44,16.40
2015,06,20,17,45,16.40
2015,06,20,17,46,16.60
2015,06,20,17,47,16.60
2015,06,20,17,48,16.60
2015,06,20,17,49,16.60
2015,06,20,17,50,16.70
2015,06,20,17,51,16.80
2015,06,20,17,52,16.90
2015,06,20,17,53,17.00
2015,06,20,17,54,17.10
2015,06,20,17,55,17.10
2015,06,20,17,56,17.20
2015,06,20,17,57,17.30
2015,06,20,17,58,17.40
2015,06,20,17,59,17.50
2015,06,20,18,00,17.60
2015,06,20,18,01,17.70
2015,06,20,18,02,17.80
2015,06,20,18,03,17.90
2015,06,20,18,04,17.80
2015,06,20,18,05,17.70
2015,06,20,18,06,17.70
2015,06,20,18,07,17.70
2015,06,20,18,08,17.70
2015,06,20,18,09,17.80
2015,06,20,18,10,17.90
2015,06,20,18,11,17.90
2015,06,20,18,12,18.00
2015,06,20,18,13,18.10
2015,06,20,18,14,18.20
2015,06,20,18,15,18.20
2015,06,20,18,16,18.20
2015,06,20,18,17,18.20
2015,06,20,18,18,18.20
2015,06,20,18,19,18.20
2015,06,20,18,20,18.20
2015,06,20,18,21,18.20
2015,06,20,18,22,18.20
2015,06,20,18,23,18.20
2015,06,20,18,24,18.20
2015,06,20,18,25,18.20
2015,06,20,18,26,18.20
2015,06,20,18,27,18.10
2015,06,20,18,28,18.10
2015,06,20,18,29,18.00
2015,06,20,18,30,17.90
2015,06,20,18,31,17.90
2015,06,20,18,32,17.90
2015,06,20,18,33,17.90
2015,06,20,18,34,18.00
2015,06,20,18,35,18.10
2015,06,20,18,36,18.10
2015,06,20,18,37,18.20
2015,06,20,18,38,18.30
2015,06,20,18,39,18.30
2015,06,20,18,40,18.40
2015,06,20,18,41,18.40
2015,06,20,18,42,18.50
2015,06,20,18,43,18.50
2015,06,20,18,44,18.50
2015,06,20,18,45,18.40
2015,06,20,18,46,18.40
2015,06,20,18,47,18.40
2015,06,20,18,48,18.50
2015,06,20,18,49,18.50
2015,06,20,18,50,18.50
2015,06,20,18,51,18.50
2015,06,20,18,52,18.60
2015,06,20,18,53,18.60
2015,06,20,18,54,18.70
2015,06,20,18,55,18.80
2015,06,20,18,56,18.80
2015,06,20,18,57,18.90
2015,06,20,18,58,18.90
2015,06,20,18,59,19.00
2015,06,20,19,00,19.10
2015,06,20,19,01,19.20
2015,06,20,19,02,19.20
2015,06,20,19,03,19.30
2015,06,20,19,04,19.40
2015,06,20,19,05,19.40
2015,06,20,19,06,19.50
2015,06,20,19,07,19.50
2015,06,20,19,08,19.60
2015,06,20,19,09,19.60
2015,06,20,19,10,19.60
2015,06,20,19,11,19.60
2015,06,20,19,12,19.60
2015,06,20,19,13,19.70
2015,06,20,19,14,19.70
2015,06,20,19,15,19.60
2015,06,20,19,16,19.60
2015,06,20,19,17,19.50
2015,06,20,19,18,19.50
2015,06,20,19,19,19.40
2015,06,20,19,20,19.40
2015,06,20,19,21,19.40
2015,06,20,19,22,19.50
2015,06,20,19,23,19.50
2015,06,20,19,24,19.50
2015,06,20,19,25,19.50
2015,06,20,19,26,19.60
2015,06,20,19,27,19.60
2015,06,20,19,28,19.60
2015,06,20,19,29,19.70
2015,06,20,19,30,19.80
2015,06,20,19,31,19.80
2015,06,20,19,32,19.80
2015,06,20,19,33,19.80
2015,06,20,19,34,19.80
2015,06,20,19,35,19.80
2015,06,20,19,36,19.70
2015,06,20,19,37,19.60
2015,06,20,19,38,19.40
2015,06,20,19,39,19.40
2015,06,20,19,40,19.30
2015,06,20,19,41,19.20
2015,06,20,19,42,19.20
2015,06,20,19,43,19.10
2015,06,20,19,44,19.10
2015,06,20,19,45,19.10
2015,06,20,19,46,19.10
2015,06,20,19,47,19.10
2015,06,20,19,48,19.10
2015,06,20,19,49,19.10
2015,06,20,19,50,19.10
2015,06,20,19,51,19.10
2015,06,20,19,52,19.10
2015,06,20,19,53,19.10
2015,06,20,19,54,19.10
2015,06,20,19,55,19.10
2015,06,20,19,56,19.10
2015,06,20,19,57,19.00
2015,06,20,19,58,18.90
2015,06,20,19,59,18.90
2015,06,20,20,00,18.80
2015,06,20,20,01,18.70
2015,06,20,20,02,18.70
2015,06,20,20,03,18.60
2015,06,20,20,04,18.50
2015,06,20,20,05,18.50
2015,06,20,20,06,18.40
2015,06,20,20,07,18.30
2015,06,20,20,08,18.30
2015,06,20,20,09,18.20
2015,06,20,20,10,18.20
2015,06,20,20,11,18.10
2015,06,20,20,12,18.10
2015,06,20,20,13,18.00
2015,06,20,20,14,17.90
2015,06,20,20,15,17.90
2015,06,20,20,16,17.80
2015,06,20,20,17,17.80
2015,06,20,20,18,17.70
2015,06,20,20,19,17.70
2015,06,20,20,20,17.70
2015,06,20,20,21,17.60
2015,06,20,20,22,17.50
2015,06,20,20,23,17.50
2015,06,20,20,24,17.40
2015,06,20,20,25,17.40
2015,06,20,20,26,17.30
2015,06,20,20,27,17.30
2015,06,20,20,28,17.30
2015,06,20,20,29,17.20
2015,06,20,20,30,17.10
2015,06,20,20,31,17.10
2015,06,20,20,32,17.00
2015,06,20,20,33,17.00
2015,06,20,20,34,17.00
2015,06,20,20,35,16.90
2015,06,20,20,36,16.90
2015,06,20,20,37,16.90
2015,06,20,20,38,16.80
2015,06,20,20,39,16.80
2015,06,20,20,40,16.80
2015,06,20,20,41,16.70
2015,06,20,20,42,16.70
2015,06,20,20,43,16.70
2015,06,20,20,44,16.70
2015,06,20,20,45,16.60
2015,06,20,20,46,16.50
2015,06,20,20,47,16.40
2015,06,20,20,48,16.40
2015,06,20,20,49,16.40
2015,06,20,20,50,16.30
2015,06,20,20,51,16.20
2015,06,20,20,52,16.10
2015,06,20,20,53,16.10
2015,06,20,20,54,16.10
2015,06,20,20,55,16.00
2015,06,20,20,56,15.90
2015,06,20,20,57,15.80
2015,06,20,20,58,15.80
2015,06,20,20,59,15.80
2015,06,20,21,00,15.80
2015,06,20,21,01,15.70
2015,06,20,21,02,15.70
2015,06,20,21,03,15.60
2015,06,20,21,04,15.60
2015,06,20,21,05,15.50
2015,06,20,21,06,15.50
2015,06,20,21,07,15.40
2015,06,20,21,08,15.40
2015,06,20,21,09,15.30
2015,06,20,21,10,15.30
2015,06,20,21,11,15.30
2015,06,20,21,12,15.30
2015,06,20,21,13,15.20
2015,06,20,21,14,15.20
2015,06,20,21,15,15.10
2015,06,20,21,16,15.10
2015,06,20,21,17,15.10
2015,06,20,21,18,15.00
2015,06,20,21,19,15.00
2015,06,20,21,20,15.00
2015,06,20,21,21,14.90
2015,06,20,21,22,14.90
2015,06,20,21,23,14.80
2015,06,20,21,24,14.80
2015,06,20,21,25,14.80
2015,06,20,21,26,14.80
2015,06,20,21,27,14.80
2015,06,20,21,28,14.70
2015,06,20,21,29,14.70
2015,06,20,21,30,14.70
2015,06,20,21,31,14.60
2015,06,20,21,32,14.60
2015,06,20,21,33,14.60
2015,06,20,21,34,14.50
2015,06,20,21,35,14.50
2015,06,20,21,36,14.50
2015,06,20,21,37,14.50
2015,06,20,21,38,14.40
2015,06,20,21,39,14.40
2015,06,20,21,40,14.40
2015,06,20,21,41,14.30
2015,06,20,21,42,14.30
2015,06,20,21,43,14.30
2015,06,20,21,44,14.20
2015,06,20,21,45,14.20
2015,06,20,21,46,14.20
2015,06,20,21,47,14.20
2015,06,20,21,48,14.20
2015,06,20,21,49,14.20
2015,06,20,21,50,14.20
2015,06,20,21,51,14.20
2015,06,20,21,52,14.10
2015,06,20,21,53,14.10
2015,06,20,21,54,14.10
2015,06,20,21,55,14.10
2015,06,20,21,56,14.10
2015,06,20,21,57,14.10
2015,06,20,21,58,14.10
2015,06,20,21,59,14.10
2015,06,20,22,00,14.10
2015,06,20,22,01,14.10
2015,06,20,22,02,14.10
2015,06,20,22,03,14.10
2015,06,20,22,04,14.10
2015,06,20,22,05,14.10
2015,06,20,22,06,14.10
2015,06,20,22,07,14.10
2015,06,20,22,08,14.10
2015,06,20,22,09,14.10
2015,06,20,22,10,14.10
2015,06,20,22,11,14.10
2015,06,20,22,12,14.10
2015,06,20,22,13,14.10
2015,06,20,22,14,14.10
2015,06,20,22,15,14.10
2015,06,20,22,16,14.10
2015,06,20,22,17,14.10
2015,06,20,22,18,14.10
2015,06,20,22,19,14.10
2015,06,20,22,20,14.00
2015,06,20,22,21,14.00
2015,06,20,22,22,14.00
2015,06,20,22,23,14.00
2015,06,20,22,24,14.00
2015,06,20,22,25,13.90
2015,06,20,22,26,13.90
2015,06,20,22,27,13.90
2015,06,20,22,28,13.90
2015,06,20,22,29,13.80
2015,06,20,22,30,13.80
2015,06,20,22,31,13.80
2015,06,20,22,32,13.80
2015,06,20,22,33,13.80
2015,06,20,22,34,13.80
2015,06,20,22,35,13.80
2015,06,20,22,36,13.80
2015,06,20,22,37,13.80
2015,06,20,22,38,13.80
2015,06,20,22,39,13.70
2015,06,20,22,40,13.70
2015,06,20,22,41,13.70
2015,06,20,22,42,13.70
2015,06,20,22,43,13.70
2015,06,20,22,44,13.70
2015,06,20,22,45,13.70
2015,06,20,22,46,13.70
2015,06,20,22,47,13.70
2015,06,20,22,48,13.70
2015,06,20,22,49,13.70
2015,06,20,22,50,13.70
2015,06,20,22,51,13.70
2015,06,20,22,52,13.70
2015,06,20,22,53,13.70
2015,06,20,22,54,13.70
2015,06,20,22,55,13.70
2015,06,20,22,56,13.70
